Wind_Speed
12 11 14 15 15 18 20 20 19 19 18 16 14 14 15 15 13 12 12 12 12 12 15 16 16 15 14 16 16 15 13 12 12 11 12 14 13 13 14 14 14 14 14 17 24 27 27 27 27 26 26 27 27 26 27 27 28 27 25 25 24 23 25 25 25 25 23 21 20 19 19 18 17 16 15 15 15 15 14 14 14 15 14 14 13 13
13 13 16 19 19 19 20 20 19 20 21 18 14 13 14 14 13 13 15 15 13 10 11 13 16 17 15 16 15 13 14 13 13 12 12 14 14 13 15 15 13 13 13 17 22 25 27 27 27 27 26 28 29 27 28 29 29 28 26 26 25 24 25 25 25 25 24 22 21 20 19 18 17 17 16 16 16 15 14 14 15 15 15 15 14 14
14 15 19 21 20 19 18 19 21 21 20 18 13 11 12 11 12 14 16 17 14 8 9 14 14 15 15 15 13 11 13 14 14 13 12 13 14 13 15 14 13 15 15 18 21 24 27 28 28 27 26 29 30 29 29 29 29 29 27 27 26 25 25 25 25 24 23 22 21 19 18 18 16 16 17 16 15 15 15 15 16 15 15 16 15 15
13 14 20 21 19 20 20 19 21 19 16 15 13 11 11 12 12 12 13 16 15 9 9 14 14 13 14 15 14 16 16 14 15 15 14 13 14 14 14 15 15 18 18 20 21 22 25 27 29 27 26 28 29 29 29 29 30 29 28 27 27 26 25 25 25 24 23 21 20 18 17 17 15 15 16 15 15 15 16 16 17 17 17 17 16 15
15 13 17 21 20 20 21 19 19 16 13 15 17 14 13 15 15 12 12 15 16 13 11 14 12 10 13 15 15 15 16 13 14 17 15 13 15 16 15 16 17 18 18 19 21 22 23 25 28 28 27 28 29 30 31 31 31 30 29 29 28 27 26 25 25 25 22 21 20 19 17 16 16 14 15 16 16 16 17 17 17 18 18 18 16 16
17 14 15 21 21 20 21 18 18 15 12 14 19 19 16 17 18 16 15 14 12 11 13 14 11 10 13 16 15 14 15 16 15 17 17 14 14 17 18 18 18 18 17 17 20 22 23 24 27 29 28 29 30 30 31 32 31 30 30 30 29 27 26 25 26 26 23 22 22 21 19 18 18 16 16 17 17 17 18 17 17 17 17 18 17 16
14 17 15 18 21 22 20 17 19 18 12 11 15 20 21 20 18 17 17 14 10 9 11 14 12 10 11 15 18 17 17 19 17 17 17 14 13 15 16 16 18 19 18 18 20 21 23 24 26 28 30 30 30 31 31 31 31 30 30 31 30 28 27 26 26 27 25 23 22 22 21 20 19 18 17 17 17 16 17 17 17 17 17 18 18 17
14 20 18 17 19 20 17 14 18 18 13 10 12 17 20 21 21 18 17 13 9 9 11 14 14 11 10 12 15 17 19 21 17 16 16 15 15 15 15 16 17 19 19 18 19 22 23 24 26 29 31 32 31 31 31 30 31 31 31 32 31 29 28 27 27 28 27 24 23 23 22 21 20 19 17 16 17 16 15 16 17 17 17 18 19 18
16 21 20 19 18 15 15 16 17 18 15 12 11 13 15 18 21 20 16 12 10 10 10 14 15 12 10 9 11 14 18 19 16 16 16 15 15 15 14 16 18 19 21 21 21 22 23 24 29 32 33 32 31 31 31 32 32 32 32 32 32 30 28 28 28 29 29 26 24 24 23 22 20 19 17 16 17 16 16 16 17 17 17 18 19 19
14 18 20 19 16 13 16 17 17 18 15 13 13 14 11 11 14 16 15 12 11 12 12 15 16 12 9 9 11 14 16 15 13 14 16 15 15 14 14 16 18 18 19 20 21 21 22 26 31 33 33 33 32 31 32 32 31 31 31 31 32 31 29 29 29 30 30 28 26 25 25 23 21 20 18 17 17 18 17 17 17 17 17 17 18 18
14 15 18 17 14 13 15 16 17 18 17 14 15 12 8 7 8 10 11 10 11 13 15 18 19 15 11 10 11 13 14 15 13 13 14 15 16 15 15 16 16 16 16 17 19 20 21 25 29 31 32 33 32 31 31 31 30 31 31 31 32 32 29 29 30 30 31 30 28 26 26 25 23 21 20 18 18 19 19 19 18 18 17 17 17 17
18 15 14 14 15 15 14 15 15 17 17 15 13 10 8 7 8 8 8 9 11 12 13 18 21 19 14 10 10 12 15 18 17 15 17 18 18 17 16 17 16 16 16 17 17 18 20 22 25 28 30 32 32 31 32 32 31 32 32 33 33 32 30 29 30 31 31 30 29 27 26 26 25 23 22 21 20 19 20 19 19 18 18 17 17 17
18 16 14 15 17 18 15 13 12 14 15 14 12 11 10 8 8 9 9 10 12 11 11 16 18 17 15 11 12 14 15 17 17 15 17 20 21 20 19 19 15 15 17 17 16 17 18 19 21 24 28 31 32 33 34 33 33 33 33 34 34 34 33 31 31 31 31 31 30 28 27 26 25 25 24 23 22 21 20 20 19 19 19 18 18 18
14 16 19 17 15 18 18 12 11 12 13 14 12 11 10 9 9 10 10 10 11 11 12 16 16 14 14 11 15 19 17 15 15 15 17 20 22 22 20 18 14 15 16 16 16 17 18 19 20 22 27 30 32 34 35 35 34 33 33 35 36 35 34 33 32 32 32 31 31 30 28 26 25 26 25 24 23 22 21 20 20 20 20 20 19 19
15 14 18 19 13 17 21 16 13 12 12 14 13 11 11 9 9 9 9 9 9 9 13 16 13 11 11 7 11 18 19 16 14 15 17 17 17 19 19 15 13 15 16 15 16 18 19 20 21 22 27 30 32 34 35 35 35 33 33 35 37 36 36 34 33 33 33 33 32 31 29 26 25 25 26 25 24 24 23 22 21 21 21 20 20 20
17 13 16 21 16 18 23 19 16 14 12 12 12 12 12 11 9 7 7 9 9 8 10 12 10 9 9 7 7 10 15 19 16 14 15 14 15 16 18 16 15 15 15 15 16 18 20 20 21 23 27 30 31 33 34 34 35 35 34 35 37 37 37 37 35 34 34 34 33 31 29 28 26 25 25 25 25 25 25 23 22 22 22 21 20 19
14 12 15 23 21 21 22 21 20 15 10 10 13 13 12 13 11 7 7 8 8 8 7 8 10 9 7 8 9 8 11 17 19 18 15 15 16 15 16 18 16 16 15 17 17 18 19 20 21 25 28 30 31 33 35 36 37 37 35 35 37 36 36 37 36 35 35 34 33 32 31 29 28 27 27 26 26 26 25 24 24 22 22 22 21 20
11 10 15 23 24 21 20 22 22 19 13 9 12 14 11 12 11 8 7 7 7 8 7 8 12 11 8 7 9 13 14 15 19 21 19 17 17 16 16 18 18 18 17 18 19 18 19 20 21 25 29 32 34 35 36 37 37 37 36 36 37 37 37 37 37 36 35 34 33 32 32 31 30 29 28 27 26 25 25 25 25 24 23 23 22 21
10 9 12 22 23 19 18 19 19 19 20 14 10 13 11 10 11 9 7 8 9 8 7 10 11 10 9 8 8 13 16 15 15 18 19 20 19 17 17 19 21 21 17 17 18 17 18 20 21 25 29 33 35 36 36 36 35 35 34 35 37 38 39 38 37 35 34 34 33 32 33 34 32 30 29 27 26 25 26 26 26 25 25 23 22 22
10 9 9 18 23 19 15 15 15 16 20 17 12 13 12 9 9 9 8 7 8 7 7 9 10 9 9 10 11 11 13 15 16 15 15 17 18 16 15 16 19 19 16 16 16 16 19 21 23 27 30 32 33 33 33 34 35 35 34 34 36 37 37 37 36 35 35 35 34 33 33 34 33 32 30 28 27 26 27 28 27 26 26 24 23 23
11 9 8 13 20 18 13 14 16 16 17 16 13 13 12 10 8 9 10 8 8 8 6 6 7 6 5 7 10 9 9 11 14 15 14 14 15 16 15 15 16 16 15 15 15 17 19 20 22 27 29 29 30 31 32 34 35 35 34 34 35 36 37 37 37 36 35 35 35 34 34 34 34 33 31 29 29 28 28 27 28 27 26 25 24 24
8 7 10 10 14 15 14 17 20 20 19 16 13 13 13 12 10 10 10 10 9 8 6 6 6 2 4 3 4 7 9 9 10 12 13 13 15 15 15 16 15 15 15 15 15 16 18 18 19 22 25 27 28 30 32 33 34 35 35 35 35 35 36 38 38 37 36 35 35 35 35 34 33 33 32 31 30 30 29 27 28 27 26 25 25 25
4 4 10 10 12 14 17 19 20 22 22 19 16 14 12 12 12 10 9 9 9 9 8 6 6 1 7 6 5 4 5 7 8 9 9 11 13 13 14 16 16 15 15 15 16 15 15 16 16 18 22 25 26 29 31 32 33 35 36 35 35 36 37 38 38 38 37 36 35 35 35 34 33 32 33 32 32 31 31 29 28 28 28 27 26 26
2 4 9 9 10 13 16 19 19 20 21 18 16 16 14 14 13 11 9 7 8 10 9 7 7 4 8 8 5 4 2 5 7 9 10 10 10 10 12 13 14 14 12 12 13 11 12 14 14 15 17 19 22 26 29 31 32 33 34 35 36 37 38 37 36 36 36 35 35 35 35 34 33 33 34 34 33 33 32 31 29 29 29 29 27 26
3 8 10 8 9 11 13 15 16 18 17 13 14 18 18 19 18 14 10 7 7 10 11 9 7 4 7 7 4 4 6 7 8 10 10 10 9 10 10 8 8 9 9 9 9 9 11 13 14 13 13 15 20 25 27 29 30 30 32 35 35 36 36 36 35 35 35 35 35 35 35 34 34 34 35 35 34 34 34 33 31 29 29 30 29 29
5 9 10 9 11 12 11 11 12 15 15 12 15 22 22 23 22 16 10 8 8 9 10 9 5 6 9 7 5 5 6 6 6 8 10 10 8 7 8 7 7 6 7 9 9 10 11 11 12 13 12 13 20 23 24 26 28 29 30 33 33 32 34 34 34 34 34 34 34 34 35 35 35 35 36 36 35 34 34 34 32 30 29 29 30 30
5 8 12 15 14 7 2 3 5 11 15 16 19 23 23 24 23 16 11 10 9 7 8 8 5 6 10 9 6 6 7 7 6 7 9 10 7 8 9 6 4 5 6 8 8 9 9 9 11 13 12 14 19 22 23 25 27 27 28 30 31 30 31 33 33 33 33 33 33 34 35 35 36 35 35 36 35 34 33 33 33 32 30 29 29 29
6 8 13 18 19 10 3 7 8 7 16 20 22 23 23 24 25 20 15 12 10 8 8 9 9 7 7 9 7 8 10 9 8 9 10 9 7 8 8 4 5 7 7 8 8 9 9 9 9 11 12 14 18 21 22 23 26 27 27 28 29 29 29 31 32 32 32 32 32 32 34 35 35 35 35 35 34 33 33 32 33 33 31 29 29 29
6 8 12 17 20 14 6 6 9 7 11 13 17 23 24 24 26 24 20 16 13 10 8 9 12 12 5 8 9 10 9 9 9 8 10 10 8 8 8 3 5 9 10 9 10 10 10 10 9 10 12 13 16 19 21 21 23 25 25 26 27 29 29 29 31 32 31 31 32 32 32 32 32 33 34 33 33 32 32 32 32 32 31 30 29 29
4 5 7 12 18 16 11 8 9 8 8 8 12 21 24 23 24 24 21 19 17 13 10 8 12 14 11 7 9 10 7 5 4 3 4 6 5 3 4 1 3 8 12 12 11 10 10 11 11 11 12 13 14 17 20 21 21 23 24 25 26 28 28 28 29 31 31 31 31 30 29 30 31 31 31 31 32 32 31 31 31 30 31 31 29 28
3 2 4 6 11 14 12 10 9 8 7 8 11 14 18 21 23 22 21 20 17 15 14 11 9 9 9 8 6 6 4 3 3 3 3 4 3 3 3 5 4 5 7 11 12 11 10 10 11 11 13 13 14 17 20 21 21 22 23 25 26 28 28 28 28 30 31 30 29 28 27 28 29 29 29 30 30 30 30 30 30 30 30 30 30 29
5 3 3 5 7 10 11 12 12 9 8 11 13 11 12 16 18 17 16 16 15 15 15 15 11 7 6 7 7 6 5 5 7 7 6 6 5 5 7 6 4 6 6 5 7 6 7 9 10 11 12 13 15 18 20 20 21 22 24 25 26 27 28 29 29 29 30 29 27 27 28 28 28 28 28 29 28 28 28 28 28 28 28 29 30 29
5 5 3 6 6 8 13 15 13 10 9 13 13 12 12 13 11 11 11 11 12 11 11 10 8 5 4 5 6 7 7 7 8 7 6 6 6 7 8 8 7 8 8 6 4 4 5 6 6 8 8 9 12 16 18 20 22 23 24 24 24 26 28 30 29 28 29 29 28 28 29 28 28 28 28 28 28 27 26 27 28 29 29 28 28 28
6 6 4 3 5 8 10 10 11 12 12 10 8 11 15 14 12 12 12 12 12 10 8 7 6 5 5 5 7 8 8 7 6 6 7 6 7 8 9 9 9 8 8 7 6 6 6 4 2 3 5 6 9 12 15 19 21 21 23 24 25 26 27 28 28 27 28 29 29 28 28 28 29 29 28 28 28 27 27 28 29 30 29 27 28 29
7 7 5 2 5 7 7 7 9 13 11 7 6 10 15 17 17 16 15 14 14 14 14 12 10 9 7 6 6 6 5 5 4 5 7 8 8 9 10 9 8 8 8 8 7 5 4 3 2 3 4 6 8 10 12 16 18 19 21 23 25 26 26 26 27 26 27 28 29 28 28 28 28 27 26 26 27 28 29 29 29 29 28 28 28 29
7 7 7 4 5 6 5 8 9 5 2 4 7 5 5 11 17 18 17 17 17 16 15 14 14 13 11 10 8 6 6 6 6 7 10 11 10 10 10 10 9 9 9 8 5 2 3 2 2 3 4 5 6 8 11 13 16 18 20 22 24 25 26 26 26 27 27 28 29 29 28 27 27 25 25 26 27 28 29 29 29 28 28 27 27 27
8 6 6 6 6 6 6 8 8 3 2 6 8 4 1 6 11 13 13 14 15 15 13 12 12 12 11 11 11 9 8 9 8 8 10 12 12 11 13 12 11 11 9 6 5 4 3 3 3 4 6 7 8 10 10 11 14 16 18 21 23 24 25 26 26 27 27 27 28 28 27 27 27 26 27 27 28 29 30 29 28 27 27 27 26 27
10 7 7 7 7 7 7 9 10 9 8 8 8 7 4 3 4 5 7 8 10 12 12 10 8 7 7 8 6 4 3 4 5 5 6 8 8 8 12 14 11 7 4 5 6 5 5 4 4 5 6 8 10 10 9 10 12 15 17 19 22 23 24 26 26 27 27 26 26 27 26 27 27 27 27 28 28 28 27 26 26 25 25 25 26 26
12 9 7 8 8 8 10 10 10 10 7 6 8 10 7 4 2 4 7 7 4 3 4 7 8 7 6 5 4 3 3 5 6 3 4 6 7 11 12 7 2 4 7 6 5 6 7 6 6 6 7 8 9 8 9 10 11 14 16 18 20 23 24 25 25 26 26 25 24 24 24 25 25 25 26 26 26 25 24 24 24 23 23 24 24 24
13 9 8 10 10 10 11 10 9 8 4 0 3 7 7 5 5 7 9 7 4 5 3 1 3 3 2 3 3 4 6 7 6 4 8 10 9 9 12 11 10 8 7 6 6 7 7 7 6 5 5 4 4 5 6 9 11 14 16 17 19 21 22 22 23 23 24 23 22 22 23 23 24 25 25 24 24 23 23 23 22 22 23 23 23 23
10 9 8 10 10 10 12 10 8 8 4 0 3 4 3 3 7 8 6 3 5 5 4 4 3 4 4 3 2 4 5 6 8 9 10 11 9 8 9 9 8 7 6 6 7 7 7 6 4 4 4 4 4 4 5 8 11 13 14 16 17 18 19 19 20 21 22 22 22 23 23 23 24 24 24 23 22 22 22 22 22 22 22 21 21 20
10 9 9 9 9 10 11 10 9 8 7 5 6 6 4 4 5 3 2 3 1 3 5 5 5 6 6 5 4 4 6 10 12 12 12 11 9 8 8 8 7 6 6 5 5 4 5 4 4 4 4 3 4 6 7 8 10 11 12 13 14 15 15 16 18 19 20 21 21 22 22 21 22 22 21 21 21 20 20 20 20 20 20 19 19 19
7 8 9 10 9 8 10 11 11 8 4 1 3 6 6 3 1 3 5 5 2 3 6 6 6 6 7 6 6 6 8 11 12 11 11 10 9 8 7 6 6 6 6 4 4 4 4 3 3 3 4 5 3 2 5 7 8 9 10 10 10 12 12 13 14 17 18 18 18 19 19 19 19 18 18 19 19 19 18 18 19 19 19 19 18 18
4 5 7 8 8 8 10 10 6 2 2 4 4 1 2 5 6 6 6 6 4 4 6 6 7 7 7 7 7 7 8 10 10 10 9 8 8 8 6 5 4 5 5 4 3 5 4 2 2 3 4 6 6 3 2 5 7 7 8 7 5 6 9 10 11 13 15 15 16 16 16 16 17 17 16 16 17 18 17 17 17 17 17 17 17 17
3 2 4 4 5 5 7 5 3 5 3 3 4 5 7 9 8 7 7 6 5 5 6 6 7 8 8 8 7 7 7 9 10 9 8 8 8 7 5 4 4 5 5 3 3 5 4 3 3 4 4 5 5 4 4 3 5 6 7 5 3 4 7 8 9 11 12 13 14 14 14 14 14 15 14 14 15 16 16 16 16 16 16 16 16 17
3 3 5 5 6 7 7 8 7 5 4 5 7 8 9 9 8 9 8 7 7 8 8 8 8 9 9 8 7 6 7 9 10 10 8 8 8 7 5 5 5 5 6 3 2 3 2 3 3 3 4 6 5 5 5 4 5 6 5 3 3 5 7 8 9 9 9 10 11 12 13 13 13 13 13 13 13 13 13 13 14 14 15 15 16 16
6 6 6 7 7 6 6 7 7 6 6 8 9 10 10 9 9 9 8 8 9 11 11 11 11 11 11 10 9 8 9 9 10 9 8 7 8 7 6 6 5 5 5 4 2 2 2 1 3 4 5 6 6 6 6 6 5 5 4 5 6 7 7 8 9 9 8 9 9 10 11 11 11 11 12 12 12 12 13 13 13 14 14 15 15 16
3 3 5 8 8 8 9 10 10 11 12 11 10 9 9 8 9 10 10 10 11 13 13 14 13 12 11 11 11 11 11 11 10 9 8 7 7 7 7 6 6 5 4 3 3 3 1 2 3 4 5 6 6 8 8 7 6 5 3 4 5 7 7 7 8 9 9 9 8 7 8 9 9 9 11 12 11 8 8 9 11 11 9 7 7 8
3 2 5 8 9 10 12 13 13 13 14 13 13 12 10 8 9 11 11 11 12 12 14 15 15 13 12 11 11 11 11 10 9 9 9 7 6 6 6 5 5 5 3 2 3 3 1 3 4 5 6 6 6 7 7 6 6 6 5 4 5 6 8 9 9 9 9 8 8 7 6 8 8 6 7 10 9 8 9 5 2 3 5 6 4 3
7 8 8 8 9 10 11 11 11 11 10 10 10 10 8 8 10 11 12 12 12 12 13 15 15 15 14 12 11 11 11 9 8 9 8 6 5 5 6 6 5 4 3 2 2 2 2 4 4 5 6 6 6 7 7 7 7 7 6 6 6 7 9 9 9 10 9 8 8 8 7 7 6 4 3 5 9 11 13 11 7 5 6 6 5 4
9 10 10 9 10 10 10 10 9 9 9 10 10 11 9 8 11 12 12 12 12 12 12 14 14 15 15 13 10 10 10 9 8 8 6 3 3 3 4 5 5 4 3 4 4 4 5 6 6 7 7 7 8 8 8 9 9 9 8 8 8 8 9 9 9 9 9 9 9 8 7 7 5 5 4 4 4 6 8 12 12 9 9 9 9 8
Wind_Direction
193 201 207 212 212 208 210 214 219 226 233 231 222 223 220 225 230 216 218 211 194 211 218 217 230 228 218 220 208 184 185 206 209 200 193 190 181 178 189 189 191 200 199 188 184 182 181 181 179 178 178 179 181 181 179 180 181 183 183 182 185 184 182 181 182 187 189 190 193 195 200 200 200 203 204 207 208 207 204 199 195 196 197 196 196 199
198 212 214 211 214 213 210 214 221 224 231 236 232 230 225 225 227 214 213 211 191 203 227 221 230 233 225 228 218 182 180 204 211 202 199 197 183 178 189 188 190 200 201 192 182 180 183 182 179 178 178 179 180 181 180 181 181 184 184 182 183 183 183 185 184 186 190 192 194 195 199 201 199 201 204 206 207 206 203 200 199 198 198 198 197 198
204 220 218 210 212 218 215 212 219 224 226 232 234 235 234 224 226 224 215 216 206 194 229 233 234 237 232 236 235 213 202 198 203 210 204 197 188 183 185 180 189 203 202 193 182 179 182 182 180 178 179 181 180 180 180 181 181 183 184 183 182 183 183 186 186 186 190 193 195 196 198 200 200 199 203 208 206 205 204 201 201 200 199 199 197 198
207 218 216 212 209 213 219 213 214 222 224 228 228 226 233 223 220 227 216 219 217 199 228 240 238 239 235 234 231 231 228 201 189 208 211 196 184 183 187 180 188 203 202 191 182 178 180 182 182 180 180 181 180 179 180 180 181 182 185 183 182 183 184 186 187 187 190 192 194 197 198 201 205 202 201 206 207 205 205 203 200 202 201 199 199 200
215 211 206 212 210 209 218 216 211 217 220 225 228 225 228 226 225 230 222 223 219 206 222 241 245 240 235 237 229 227 235 218 191 200 213 206 183 175 184 188 191 203 206 195 184 179 180 182 182 182 180 180 181 181 181 181 182 183 185 183 182 184 185 186 187 187 188 189 192 195 198 202 208 208 202 203 207 204 205 205 201 203 203 201 201 202
221 212 197 206 210 208 215 216 210 213 219 221 225 228 233 234 233 236 236 234 225 214 216 226 241 243 232 237 238 230 230 222 200 196 211 215 196 178 180 189 191 196 205 203 191 182 180 181 181 181 182 183 183 183 183 182 183 184 183 182 182 184 186 187 187 187 187 188 191 193 196 198 203 206 203 202 205 203 203 207 205 205 206 204 203 204
223 216 204 204 207 207 213 217 212 212 223 224 216 220 230 240 242 239 239 236 230 230 222 215 226 243 235 231 232 228 230 228 204 192 207 212 207 195 185 187 186 185 194 203 199 187 181 180 180 181 184 186 185 184 183 183 183 184 182 182 183 184 186 188 188 187 187 188 191 194 197 200 200 202 203 203 205 205 204 207 207 206 206 206 205 205
216 215 207 201 206 209 210 217 212 207 219 229 213 211 218 230 238 238 240 240 234 243 243 230 228 239 239 233 230 221 225 230 205 184 203 207 207 208 193 186 186 184 188 197 200 191 183 182 182 183 185 187 187 183 182 183 183 183 182 182 183 184 186 188 188 188 188 189 191 195 199 203 204 204 204 202 204 207 206 207 208 207 204 205 207 206
208 214 208 199 204 213 211 213 209 203 216 229 221 219 215 220 228 232 237 242 238 240 245 238 235 242 241 237 243 234 227 224 198 183 203 206 204 210 203 192 187 187 188 191 197 193 185 185 185 184 184 186 186 184 183 184 183 183 183 183 183 185 186 187 189 189 190 191 193 197 201 204 206 206 205 204 204 206 207 207 208 207 205 204 206 207
204 210 214 207 204 214 214 210 206 205 216 224 223 225 219 217 225 226 231 235 236 239 238 233 232 241 245 229 230 238 235 222 199 197 207 204 200 205 215 206 188 187 190 189 193 192 189 189 187 185 183 184 186 185 184 184 182 182 182 183 184 186 187 188 189 190 191 193 195 199 203 204 205 203 204 205 205 204 206 207 206 206 206 205 206 207
215 202 213 218 208 212 215 207 206 212 214 213 219 220 209 215 225 226 229 230 235 239 235 232 233 239 246 233 221 226 228 220 210 206 199 199 200 197 213 218 193 186 191 189 191 191 191 191 188 186 184 184 186 184 183 183 182 181 181 183 185 186 187 188 189 190 192 194 196 200 203 205 204 201 201 204 204 203 204 205 205 206 207 207 208 208
225 204 204 217 208 205 217 212 204 209 209 207 213 207 196 206 213 220 219 219 233 237 229 228 232 239 243 234 228 230 227 221 216 207 192 194 200 194 206 217 197 186 190 189 190 189 189 190 189 189 187 185 185 183 183 184 183 181 181 182 183 186 187 187 189 191 192 195 197 201 204 205 203 200 200 203 204 203 202 204 205 205 207 209 210 209
222 216 204 202 200 200 212 213 196 199 204 204 207 201 198 199 196 209 209 209 229 234 228 225 222 232 244 237 233 239 235 226 219 210 198 199 198 189 199 212 198 186 188 189 190 188 187 189 190 190 188 185 185 184 184 184 183 182 181 181 182 185 186 186 188 190 192 196 197 200 204 204 202 201 202 204 205 204 203 204 204 205 206 208 210 210
210 217 209 196 193 199 208 210 193 191 196 199 203 198 197 199 194 203 209 212 228 228 224 225 220 228 242 236 227 232 237 233 220 207 204 209 203 185 189 207 202 191 190 187 189 189 188 189 190 190 188 187 187 186 184 185 184 183 182 182 182 184 185 186 187 189 192 196 198 200 203 203 201 201 203 205 206 206 205 205 206 206 208 209 211 212
203 210 208 199 189 191 202 214 205 191 193 199 202 201 204 212 208 206 210 213 224 226 216 215 220 229 235 235 225 224 226 228 227 213 203 209 206 182 176 196 212 204 193 187 190 191 190 189 188 189 189 188 189 187 185 185 185 184 183 183 182 183 184 185 187 189 193 196 198 200 201 201 202 203 204 205 208 208 208 208 208 209 211 212 213 214
211 214 204 200 196 190 196 209 210 198 193 195 199 206 209 215 221 223 224 222 226 234 217 205 215 229 233 240 232 224 221 215 217 219 205 200 206 188 170 182 211 214 195 187 194 193 190 189 186 189 190 189 190 189 187 186 185 185 184 183 183 183 184 185 187 189 192 195 197 198 199 201 203 203 204 206 208 209 210 209 210 211 213 214 215 215
214 219 202 195 196 198 195 198 206 207 196 185 198 210 209 212 228 238 234 232 234 239 228 206 210 216 226 228 208 207 225 212 205 211 207 195 200 193 173 176 200 215 202 189 193 193 188 187 187 189 190 189 189 190 190 189 187 186 185 183 183 184 184 185 187 188 191 193 195 197 199 200 202 204 205 206 208 209 210 210 211 213 213 215 215 215
214 221 204 191 192 196 192 195 205 211 208 194 196 204 205 213 228 241 237 228 225 231 232 219 215 208 211 222 204 199 213 214 204 206 205 197 198 198 186 179 190 207 206 192 190 190 187 187 188 190 192 191 190 191 192 191 188 187 186 184 183 183 185 186 187 189 190 191 193 196 198 200 202 204 206 207 208 209 210 210 211 212 213 215 215 215
221 228 203 188 188 186 184 195 205 208 214 218 205 195 199 210 211 215 230 228 221 223 226 226 226 219 211 214 213 203 203 208 203 200 204 202 200 204 200 187 187 199 203 194 190 188 187 189 189 190 193 193 192 191 191 190 189 189 188 187 185 185 186 186 188 189 190 191 193 196 198 200 201 204 206 207 208 209 210 211 211 211 213 214 214 213
221 233 207 179 179 180 180 197 204 197 205 219 217 200 203 217 210 204 216 226 227 227 225 222 222 225 224 216 215 204 192 200 201 195 204 205 194 195 199 189 186 195 200 196 191 187 188 192 191 192 194 194 193 191 190 189 190 191 190 189 189 188 187 187 188 189 190 192 195 196 198 200 201 204 205 206 206 208 210 211 211 212 213 213 213 213
219 227 221 171 169 184 190 199 205 194 192 205 213 204 198 207 212 210 213 215 226 233 230 230 226 216 208 204 208 198 179 191 202 197 201 210 201 191 192 190 186 191 199 199 194 190 191 193 193 192 193 193 192 191 191 191 191 192 192 191 191 190 188 188 189 190 191 193 195 195 197 199 200 202 204 205 205 207 210 210 210 212 211 211 212 212
224 225 226 183 172 199 203 196 204 203 194 196 206 207 198 198 204 210 210 205 218 235 234 243 250 201 97 110 184 197 188 182 194 201 195 202 211 204 193 191 186 189 198 200 197 195 193 193 192 190 189 191 192 191 193 193 192 192 193 192 192 191 191 191 191 191 192 193 195 196 197 198 199 201 202 204 205 207 208 208 209 210 209 211 211 211
241 266 236 206 187 207 207 196 202 208 202 198 205 211 204 200 204 209 208 198 205 224 231 242 250 149 91 95 121 152 183 179 182 200 198 191 203 207 198 192 188 190 199 203 202 199 191 188 189 187 186 191 194 193 193 194 194 194 194 192 192 193 194 193 192 191 190 191 194 195 197 198 199 200 201 203 205 207 208 209 208 208 208 210 211 211
199 265 241 222 198 203 204 196 197 206 206 200 204 210 209 207 207 211 214 202 200 212 211 218 233 186 110 108 114 106 159 212 193 193 203 198 189 190 197 194 183 180 190 201 203 198 188 181 181 184 185 190 195 194 194 196 197 196 195 193 194 195 196 194 193 191 189 190 193 194 196 197 198 200 202 204 206 208 209 209 209 209 209 211 213 213
213 219 221 224 206 193 193 192 190 201 209 206 202 205 210 212 208 209 215 213 212 211 203 205 222 188 119 118 147 177 196 214 200 180 184 192 183 176 177 165 140 145 169 191 196 191 183 174 173 183 187 187 192 196 196 197 199 199 198 197 197 196 195 194 193 192 191 191 193 194 195 196 198 200 202 205 207 209 210 211 211 211 211 211 213 214
262 218 209 217 210 190 188 196 190 193 202 208 205 202 205 211 210 206 209 214 215 210 208 216 205 132 122 130 155 184 197 196 176 163 165 174 172 142 120 110 110 135 171 189 192 188 184 177 175 183 188 186 191 196 197 197 199 201 200 201 201 198 195 194 194 193 192 192 194 194 195 196 198 201 203 205 208 210 211 213 213 213 212 211 212 212
276 232 219 225 226 209 186 253 228 201 200 205 207 202 202 208 210 207 208 214 212 208 213 226 222 151 137 145 163 170 175 173 154 141 143 151 145 105 90 97 138 163 176 181 183 183 182 183 182 184 187 190 194 197 199 199 201 202 202 202 203 200 196 195 194 194 193 193 194 194 194 196 198 201 203 206 209 211 212 213 214 214 213 211 211 211
277 240 225 230 236 246 317 341 323 239 209 207 208 205 202 204 208 209 213 210 201 211 213 201 222 228 144 140 172 171 157 153 150 143 129 124 130 117 106 123 160 160 162 166 168 173 179 184 185 185 188 193 197 200 201 202 202 203 203 203 203 202 200 197 195 195 194 193 195 195 195 196 197 200 204 206 208 209 210 212 213 213 213 211 210 211
278 241 230 229 234 241 249 299 311 270 226 223 219 211 204 202 205 208 213 210 201 218 223 180 197 226 200 141 157 156 142 138 144 139 118 123 144 127 108 134 170 156 155 158 162 168 174 180 183 184 188 194 200 201 202 204 204 203 204 203 202 204 203 198 196 196 195 194 196 196 195 194 196 200 203 205 205 206 208 210 211 211 212 212 211 211
282 243 251 237 231 236 233 242 273 264 247 262 244 218 206 204 206 207 211 212 207 215 224 190 187 211 220 195 158 145 148 162 157 115 103 147 168 104 82 251 215 166 160 158 164 172 173 176 181 184 188 193 199 201 201 204 205 204 205 203 203 204 203 199 196 196 197 197 197 195 192 193 196 198 201 203 203 204 205 207 208 209 210 212 212 212
290 277 324 280 242 237 228 222 242 255 255 260 246 224 212 208 206 206 208 210 210 213 215 207 195 197 211 223 209 172 173 223 261 277 263 240 276 326 275 257 261 223 183 160 161 166 165 172 178 181 188 193 197 200 201 202 203 204 205 204 203 204 203 200 197 196 198 199 196 193 191 192 195 197 199 201 202 202 203 204 207 208 209 211 212 212
297 300 302 260 241 237 225 215 222 237 248 244 236 227 223 218 210 206 206 207 210 213 213 213 213 204 192 210 234 237 235 255 263 259 261 271 284 284 274 274 272 263 253 201 170 161 169 185 183 181 191 197 196 199 202 202 201 203 205 204 202 202 202 203 200 197 198 199 195 191 191 191 193 195 198 200 201 201 201 202 204 206 208 209 209 210
307 311 268 225 232 233 220 214 216 225 237 236 228 220 222 226 221 212 208 211 217 218 217 216 215 213 192 197 225 237 234 239 248 256 266 277 284 288 287 284 272 261 259 253 243 235 229 219 194 185 194 198 199 202 202 201 202 204 205 203 199 200 202 204 202 197 195 197 195 192 191 190 191 194 197 198 198 199 199 200 203 205 206 207 207 208
299 287 270 249 244 222 201 197 209 219 225 225 218 222 227 228 227 224 216 213 216 220 228 232 225 219 215 215 226 233 235 234 239 256 266 270 279 283 279 275 275 273 270 274 282 280 281 300 289 216 214 213 218 216 207 204 206 205 203 201 199 199 201 203 203 197 194 195 196 194 191 190 191 194 195 195 195 195 198 200 203 204 205 205 206 208
287 257 239 270 265 227 173 162 204 220 229 229 212 223 232 230 229 234 236 230 226 226 230 235 236 234 232 235 238 241 246 241 238 260 270 272 273 273 274 274 275 280 281 282 286 293 312 324 289 254 248 238 234 227 214 210 209 204 201 200 200 200 200 200 202 198 194 195 197 195 192 191 192 193 192 192 193 195 199 202 203 204 204 205 207 209
276 251 230 239 269 258 202 186 201 215 250 227 202 202 236 230 223 226 232 233 233 234 234 233 234 236 236 237 238 242 252 259 263 264 268 273 273 270 272 275 275 277 278 279 289 346 44 21 300 292 285 269 251 236 225 217 210 204 201 199 200 200 198 198 200 199 196 195 196 195 193 192 192 192 192 192 193 196 200 202 203 203 203 206 209 211
247 252 246 232 235 251 236 208 198 189 180 195 187 165 196 223 218 223 231 230 227 232 238 238 237 236 234 230 231 238 246 250 252 252 253 256 256 257 260 262 266 270 273 293 334 7 22 342 299 281 269 262 254 247 240 229 215 207 202 199 200 200 198 198 200 200 197 196 197 196 195 194 194 194 194 194 196 200 202 202 203 204 203 206 210 213
220 230 248 238 222 228 235 222 214 217 217 205 187 171 175 201 199 217 233 227 218 221 230 237 239 240 244 248 252 262 263 248 245 253 263 261 269 287 276 255 245 257 308 2 356 340 338 334 316 293 277 265 256 248 243 237 222 209 203 200 199 198 199 200 201 199 197 197 197 196 196 197 197 196 196 197 200 202 203 203 205 205 204 207 211 215
211 217 237 239 227 222 224 224 222 220 219 212 188 173 176 188 144 165 207 212 194 180 212 230 235 237 251 271 291 291 267 252 249 268 340 340 348 357 345 325 349 43 32 21 357 339 338 337 324 300 280 266 257 244 234 232 223 211 205 201 198 199 201 203 202 199 198 197 197 197 198 199 200 199 199 201 203 204 204 204 206 206 206 209 213 217
206 203 217 226 225 225 226 225 223 221 227 291 157 162 171 184 183 197 204 185 121 73 67 210 237 250 311 334 305 257 244 248 262 325 4 352 349 6 9 12 25 27 10 359 4 354 332 320 317 302 288 283 276 253 226 218 215 212 206 200 199 201 204 205 203 201 200 198 196 197 197 198 199 199 201 203 203 204 204 204 205 207 208 211 214 217
204 201 207 218 221 225 227 225 224 228 235 149 120 125 123 170 188 203 207 136 92 77 58 42 30 36 35 23 319 270 265 283 304 328 340 335 341 3 6 2 8 7 356 357 0 341 313 312 335 327 316 314 289 262 230 213 211 210 204 199 201 205 205 204 202 201 200 197 195 196 196 197 198 199 202 204 203 204 206 205 207 209 209 212 215 217
199 199 204 214 219 222 220 221 228 227 215 200 173 150 155 196 193 196 296 326 37 70 48 25 18 28 24 15 1 326 311 311 314 319 322 323 336 351 349 348 351 352 357 359 351 328 309 322 351 340 323 307 261 235 218 210 206 202 197 197 202 206 206 204 200 198 198 197 196 196 195 196 198 198 201 203 202 202 204 205 207 209 209 212 215 217
204 204 208 206 209 220 219 219 225 218 193 236 223 182 174 208 305 349 331 308 296 31 25 6 5 17 7 358 357 335 316 312 309 310 312 312 317 323 328 339 336 324 324 328 337 351 343 335 349 350 349 354 343 239 204 199 197 194 192 192 199 203 203 201 195 192 193 194 194 195 195 196 197 196 198 201 200 199 202 203 205 207 209 211 214 216
229 222 221 204 196 212 216 212 220 227 38 359 316 252 31 12 2 342 329 322 322 358 4 349 351 1 354 345 345 330 315 310 307 309 312 309 307 305 302 311 319 309 305 314 345 3 1 359 13 18 22 21 14 13 166 178 180 179 172 165 170 182 182 184 184 183 185 188 189 191 194 194 194 195 196 196 195 197 200 200 203 207 208 211 216 220
235 270 284 252 235 253 253 254 319 347 343 330 341 1 359 352 349 343 337 329 327 343 349 335 335 346 345 340 336 325 317 314 311 311 310 306 302 296 294 311 322 309 300 309 352 357 358 31 42 39 57 57 42 41 64 111 146 152 148 134 117 139 155 165 173 176 180 182 183 186 189 191 192 193 192 191 192 195 199 201 205 210 212 216 222 228
253 303 313 292 281 293 287 270 272 289 309 321 332 339 336 332 337 343 342 337 335 335 334 334 338 339 335 334 333 327 324 322 315 310 307 303 300 299 307 316 308 292 286 292 335 338 345 54 62 62 81 84 79 78 84 101 123 134 144 154 162 162 161 163 166 167 172 175 174 177 182 184 186 187 187 190 192 194 201 206 208 211 214 218 224 227
233 234 254 269 276 286 281 262 257 279 315 324 318 313 313 315 327 339 344 344 339 333 329 332 333 330 330 331 330 327 323 319 314 310 305 300 297 298 298 294 287 286 294 308 326 305 292 83 83 79 80 79 76 75 76 83 97 116 146 161 165 164 162 161 157 153 158 162 160 165 173 176 179 181 182 186 194 199 204 209 213 215 217 222 228 229
244 231 242 252 254 252 258 268 281 295 302 303 298 293 295 306 327 342 345 340 335 335 335 332 326 323 326 330 332 330 323 318 317 312 303 295 290 288 285 280 276 278 285 293 289 273 245 123 112 101 89 82 74 67 66 68 69 71 94 126 145 147 139 136 137 138 143 144 140 146 161 166 168 173 178 184 190 194 196 202 210 213 210 214 227 230
272 267 251 251 251 246 247 255 269 281 285 280 273 274 288 320 338 337 332 328 328 331 333 331 326 321 318 322 327 321 311 312 316 307 296 289 279 272 272 273 273 271 273 284 278 267 144 102 105 100 93 91 86 82 85 90 86 81 83 91 112 122 113 101 99 106 111 108 101 97 115 138 147 160 181 178 155 102 77 83 130 132 98 78 61 45
248 242 241 243 246 245 241 242 249 263 270 266 263 273 303 339 337 325 321 322 323 325 324 323 321 316 309 310 318 314 307 310 312 299 288 287 288 280 269 259 254 252 243 234 229 199 128 108 105 102 100 101 97 94 94 94 89 86 89 91 97 107 111 107 105 107 109 103 95 93 97 105 98 68 68 136 125 96 77 68 63 67 72 63 49 38
245 249 249 247 248 252 255 252 251 258 269 276 283 289 299 316 315 311 311 312 312 314 312 310 312 312 304 298 301 304 302 300 299 297 296 300 318 314 284 250 235 219 199 189 175 152 136 129 123 115 111 105 97 93 92 88 82 79 82 88 93 100 110 115 113 112 113 108 102 106 114 111 95 75 69 86 119 121 99 82 72 70 78 82 82 83
Height
725 738 739 735 730 726 724 722 722 721 715 715 717 720 723 725 720 709 707 698 695 715 721 717 721 717 713 710 703 704 708 714 717 718 720 723 727 733 738 738 741 747 746 740 739 742 746 750 754 758 762 766 770 774 778 782 785 789 791 794 797 799 802 804 807 810 812 814 816 817 818 819 821 822 823 824 825 826 828 829 830 832 833 834 835 837
725 737 730 722 720 716 716 717 718 719 717 716 717 719 718 719 716 704 704 699 694 715 722 712 718 715 708 704 695 697 709 715 715 717 719 719 723 731 735 737 741 746 745 738 736 739 744 748 751 756 759 763 767 771 775 779 783 787 789 792 795 797 800 802 805 807 809 811 813 815 816 817 819 820 822 823 824 825 826 828 829 830 832 833 834 835
731 730 719 712 711 710 712 714 717 719 719 720 717 721 722 714 711 705 698 695 694 713 724 716 720 717 704 699 695 694 702 707 707 709 713 715 722 728 731 736 740 745 746 739 734 735 739 744 748 753 756 760 764 768 773 776 780 784 787 790 793 795 798 800 803 805 807 809 811 813 814 816 817 818 820 821 822 824 825 826 828 829 830 831 832 834
731 721 709 705 705 711 715 712 716 720 719 720 718 724 725 711 715 718 704 697 696 705 718 718 719 715 705 700 698 694 691 693 699 703 704 706 716 723 725 729 736 742 743 737 731 731 735 740 745 750 753 757 761 765 769 773 777 781 784 787 790 793 795 798 801 803 805 808 810 812 813 815 816 817 819 820 821 822 823 824 826 827 828 830 831 832
717 705 698 702 704 710 717 713 715 722 723 721 716 719 721 711 712 713 702 698 696 700 709 718 728 723 710 708 703 693 688 689 694 701 703 701 707 718 724 726 730 734 735 732 729 728 730 735 740 746 750 754 757 761 764 768 773 776 780 783 787 790 793 795 798 801 804 806 809 811 812 814 815 816 817 818 819 820 821 822 823 825 826 828 829 830
706 694 691 702 705 707 715 714 713 719 723 722 714 710 712 710 707 705 702 703 711 718 710 717 746 740 713 710 708 696 694 693 693 700 705 702 702 711 722 725 726 728 729 729 727 724 725 729 736 743 747 750 753 757 760 764 768 772 776 780 784 787 790 793 796 799 802 804 806 808 810 811 812 813 814 815 816 817 819 820 821 823 825 826 827 828
698 688 688 699 704 707 712 713 708 710 721 724 710 703 707 709 708 708 708 710 723 730 709 706 740 745 719 710 704 696 698 694 690 697 702 702 701 704 710 715 719 721 722 726 725 721 722 726 731 737 742 746 749 752 757 761 765 769 773 776 780 784 787 790 793 796 799 801 803 805 807 808 809 810 811 813 815 816 817 818 820 821 823 824 825 826
691 690 691 696 702 707 711 712 703 702 720 720 699 696 707 710 712 712 712 715 717 719 711 701 715 734 727 710 693 690 698 695 690 698 701 700 701 701 702 706 712 714 715 721 724 719 718 721 724 730 736 741 745 749 754 758 761 765 769 773 776 780 783 787 790 793 795 798 800 802 804 806 807 808 810 811 813 814 815 817 818 819 820 822 823 824
684 691 692 694 703 705 703 702 695 698 715 710 692 694 700 705 710 710 713 717 713 721 732 714 706 727 729 707 692 690 696 698 694 700 703 699 699 700 700 701 705 708 709 714 717 714 713 716 719 724 730 736 741 745 750 753 757 761 765 769 773 776 780 783 786 789 792 795 797 800 801 803 805 806 808 810 811 813 814 815 816 817 818 819 821 822
678 682 681 686 698 699 693 689 687 696 707 699 691 694 695 700 705 709 714 718 718 730 739 721 710 727 730 710 703 702 699 698 695 696 697 696 697 700 700 697 696 700 702 705 708 707 709 711 715 721 726 733 737 740 745 749 754 758 762 766 769 773 776 779 783 786 788 791 794 796 798 800 802 803 805 807 809 810 812 813 814 815 816 817 818 820
669 668 671 676 684 686 683 682 684 690 693 692 695 699 705 709 709 712 713 716 731 738 731 717 708 720 729 713 700 698 693 688 689 692 693 694 695 699 702 697 691 693 696 698 701 703 707 710 715 720 724 728 733 737 742 746 750 754 758 762 766 769 773 776 779 782 785 788 790 793 795 797 798 800 802 804 806 807 809 810 811 813 814 815 816 817
671 671 674 670 669 675 681 683 682 682 684 691 699 705 719 725 721 725 723 725 744 742 722 710 704 714 727 713 692 683 676 673 678 685 688 693 694 695 700 696 687 688 692 694 698 701 705 709 713 717 721 725 729 733 738 742 746 750 753 757 761 765 769 772 775 778 781 784 787 789 792 794 795 797 799 801 803 804 806 808 809 810 812 813 814 815
679 674 670 668 666 670 684 690 687 685 686 694 701 709 728 737 739 746 742 736 742 732 712 703 706 714 713 697 685 678 670 665 666 669 675 683 685 689 696 692 683 684 688 691 695 698 701 706 709 712 716 721 725 728 732 736 740 744 748 752 756 760 764 767 771 774 778 781 783 786 788 790 792 794 796 798 800 801 803 805 806 807 809 810 811 812
687 678 666 670 672 667 678 690 694 695 692 698 702 709 727 736 747 758 747 737 735 722 705 696 702 713 704 686 677 672 667 660 656 659 664 668 670 678 687 686 681 680 683 687 690 694 697 700 704 707 712 716 719 723 726 731 735 739 743 747 750 755 759 763 766 770 773 776 779 782 785 787 789 790 792 794 796 798 800 801 803 804 805 807 808 809
693 691 670 668 672 667 673 678 680 685 690 693 689 697 715 717 728 742 735 732 731 717 704 699 704 711 705 684 664 658 659 654 653 653 654 658 658 664 675 681 680 679 679 683 687 689 691 694 698 703 707 712 715 718 722 726 730 734 738 741 745 749 754 758 761 765 768 772 775 778 781 783 785 787 789 791 793 795 796 798 799 801 802 804 805 806
683 682 659 655 658 660 671 669 662 674 690 689 681 693 707 698 699 711 710 707 710 711 705 701 701 693 682 669 653 652 654 651 655 653 651 658 656 657 671 679 680 677 675 680 684 686 687 690 694 698 703 708 712 716 718 721 725 728 732 736 740 744 748 752 756 759 763 767 771 774 776 779 781 784 785 787 789 791 793 795 796 798 799 801 802 804
676 674 649 648 655 653 663 665 658 669 684 685 687 694 689 676 683 701 706 694 697 715 706 690 694 687 677 672 658 657 660 653 656 657 655 659 658 659 669 675 677 674 671 675 679 681 683 686 690 694 698 703 707 711 713 716 719 722 726 731 735 740 744 747 751 755 759 763 766 769 771 774 777 779 781 783 785 787 789 791 793 794 796 797 799 801
662 669 646 643 660 654 649 659 659 655 663 678 690 685 674 676 682 694 711 708 710 726 709 686 692 694 696 693 668 661 670 661 655 657 656 658 660 661 664 668 672 670 667 669 671 675 678 681 685 689 692 696 700 704 707 711 715 718 722 726 730 734 738 742 746 750 754 758 761 764 766 770 772 775 777 779 781 784 786 788 789 791 792 794 796 797
649 666 650 636 655 655 646 661 671 658 652 663 671 666 673 695 700 698 712 717 718 727 714 695 691 688 691 688 670 664 670 663 657 656 656 657 658 659 659 660 664 665 664 665 667 671 674 677 680 683 687 690 694 698 703 708 713 716 719 722 725 729 732 737 741 745 749 752 755 759 761 765 767 770 773 775 778 780 782 783 785 786 788 790 792 794
644 663 657 635 642 654 655 664 675 670 660 657 660 660 667 683 690 694 700 703 709 718 714 704 698 688 674 664 660 661 659 658 659 658 657 654 652 653 654 653 657 661 661 661 663 667 669 671 673 676 681 685 690 696 701 705 709 712 716 719 722 725 728 733 737 740 744 747 750 753 756 760 763 765 768 771 774 776 777 779 781 782 784 787 789 791
644 657 660 643 641 655 662 660 660 663 665 667 671 671 672 673 675 682 686 685 694 706 707 705 701 682 653 640 646 651 650 651 653 654 656 651 646 647 648 648 652 656 657 656 657 660 663 665 667 672 678 682 687 693 697 700 703 707 711 714 717 721 724 727 731 734 738 741 745 748 751 754 757 760 764 766 769 771 773 775 777 779 781 783 785 787
648 655 657 652 654 659 655 645 642 646 652 661 668 666 668 672 676 690 696 684 682 692 696 699 701 677 644 634 641 643 644 645 645 647 650 648 645 643 642 644 647 651 653 653 652 654 658 662 664 668 675 679 683 687 691 694 698 701 705 708 712 716 718 721 724 728 732 735 739 742 745 749 752 756 759 762 765 767 769 771 773 775 777 779 781 783
649 657 655 651 652 652 642 634 635 637 637 648 657 654 656 663 670 688 700 689 683 687 682 687 698 678 646 637 641 641 640 640 641 643 645 645 643 639 638 639 642 646 649 648 648 650 653 658 661 665 671 675 678 681 686 690 692 695 698 702 707 709 712 715 718 721 726 730 733 737 741 744 748 751 754 757 760 762 764 766 768 771 773 774 777 779
653 664 663 654 645 639 633 628 630 632 635 646 653 648 650 657 658 667 675 673 681 687 683 694 705 681 649 640 642 643 642 640 640 641 642 643 640 637 637 636 638 642 645 646 646 646 649 653 659 664 668 672 675 678 682 685 687 690 694 697 699 702 705 710 714 717 721 724 728 732 736 739 743 746 749 752 754 756 759 761 764 766 768 770 773 775
663 666 667 667 663 657 652 647 645 643 640 645 648 645 648 649 651 658 660 665 679 680 676 694 703 679 653 647 646 645 645 643 639 636 638 640 638 637 637 636 639 644 647 648 648 648 649 653 658 662 664 667 671 674 677 680 684 687 689 692 693 696 701 706 710 713 716 719 723 727 730 734 737 740 743 745 748 750 753 756 759 761 763 765 768 770
669 664 663 670 672 671 672 665 655 649 644 642 642 643 647 647 651 659 665 675 686 678 671 682 686 672 658 653 652 649 646 645 640 635 635 637 637 637 639 642 646 649 651 652 651 651 652 653 657 660 661 664 667 670 673 677 680 683 685 688 690 694 698 702 705 708 711 715 718 722 725 728 731 734 737 740 742 745 748 751 754 756 758 760 763 765
671 664 659 661 657 658 666 660 643 639 645 648 644 642 646 646 647 654 667 677 679 678 679 674 669 669 665 660 658 653 649 648 644 640 639 639 639 642 646 649 650 650 652 652 652 653 654 655 657 659 661 663 665 668 671 674 677 680 682 685 688 691 694 698 701 704 707 710 713 717 720 722 725 729 732 734 737 740 743 746 749 751 753 756 758 761
678 672 662 659 654 651 659 658 645 639 642 644 644 643 644 645 646 653 664 666 665 678 686 671 663 672 668 660 659 654 648 649 646 643 643 644 644 646 648 650 650 650 652 652 654 656 657 658 659 659 661 662 664 666 669 671 674 676 679 682 685 688 691 694 697 700 703 707 709 712 714 717 721 724 727 730 733 736 739 741 744 746 749 752 754 756
684 679 665 660 657 652 655 659 654 647 642 641 641 639 639 642 646 652 657 655 657 674 678 665 666 674 664 655 655 649 645 647 644 641 641 644 645 645 648 650 649 649 652 654 655 656 657 659 659 660 661 661 663 665 666 669 672 674 677 680 682 685 687 690 694 697 700 702 705 707 710 714 717 720 723 726 729 732 734 737 740 742 745 748 749 752
686 682 669 663 661 657 657 660 657 652 650 648 643 635 633 638 641 646 650 648 652 662 661 657 666 669 657 649 647 643 642 642 640 640 642 645 646 646 650 652 648 646 648 651 654 654 654 656 657 658 660 660 661 663 664 667 669 671 675 677 680 682 684 687 690 693 696 698 700 704 707 711 714 716 719 722 724 727 730 733 736 739 741 744 746 748
687 686 676 671 673 667 660 661 660 658 658 657 648 636 633 636 639 643 646 646 652 659 656 656 668 669 654 644 641 641 641 643 645 648 649 648 648 650 653 653 649 646 643 645 649 651 651 653 654 655 657 658 659 660 662 664 666 669 671 673 676 679 681 684 687 689 692 694 697 701 704 707 710 713 716 718 721 724 727 729 732 735 737 740 742 745
691 690 683 683 691 681 665 665 666 660 660 662 656 647 644 642 640 640 641 642 648 656 658 662 671 669 654 645 645 645 645 650 654 653 652 651 650 652 654 653 651 649 645 643 646 647 649 651 651 653 654 653 655 657 659 661 663 666 667 669 673 676 679 680 682 685 688 691 695 698 700 703 706 709 712 715 718 721 724 727 729 731 734 736 738 741
697 698 688 685 695 685 666 663 664 667 677 674 659 651 651 648 644 642 643 643 643 650 659 666 665 658 649 649 654 653 652 655 655 652 652 653 652 652 654 653 652 649 645 644 643 644 645 645 645 648 649 649 651 653 655 658 660 661 663 666 670 672 674 676 678 681 685 688 692 693 695 699 702 705 708 711 714 718 720 723 725 727 730 732 734 737
703 702 691 684 690 683 665 661 668 681 689 674 650 644 648 649 651 652 651 649 647 648 653 657 654 650 650 653 657 656 654 652 651 650 648 648 650 651 650 649 648 646 644 643 643 642 642 641 643 645 646 647 649 650 652 655 656 659 661 664 666 668 671 673 675 678 681 684 687 689 692 695 697 700 703 707 710 714 716 718 720 722 726 728 731 733
708 702 695 691 690 678 665 673 692 695 677 654 642 641 643 643 647 652 652 648 646 647 649 652 653 651 651 652 651 651 651 648 647 648 645 643 644 646 646 645 644 644 644 643 643 643 643 643 644 645 645 646 647 648 650 652 653 656 659 661 663 665 667 670 672 674 678 681 683 685 688 691 693 697 700 703 707 709 712 714 716 718 722 724 726 727
711 703 697 695 694 685 676 685 700 691 664 649 647 645 644 646 648 655 660 654 646 646 648 651 652 649 649 650 649 648 649 647 647 648 645 642 640 640 643 642 640 640 641 639 640 642 642 643 644 645 646 647 647 647 648 649 650 653 655 657 660 662 664 667 669 671 673 676 679 682 684 687 691 694 697 700 703 705 707 709 711 714 717 719 722 723
710 709 704 700 697 692 688 685 683 679 671 664 659 653 652 653 651 655 663 657 644 642 645 647 649 648 646 647 647 646 646 650 654 651 642 638 637 636 636 636 635 635 634 634 636 639 641 643 644 645 647 647 647 647 646 647 648 649 651 654 657 659 662 664 665 667 669 672 675 678 681 684 687 690 693 696 698 699 702 704 707 710 713 716 718 719
707 710 709 708 699 692 693 691 685 688 685 671 659 653 650 650 646 649 662 661 646 640 643 646 650 651 649 648 648 647 650 660 666 657 641 634 633 633 632 629 627 630 632 634 638 639 641 643 644 645 646 645 646 646 645 646 646 647 649 651 653 657 659 660 661 664 666 669 672 675 679 681 684 686 689 691 693 695 698 701 704 707 709 712 713 715
706 708 708 711 705 696 699 700 692 689 680 661 651 650 649 648 646 652 671 673 654 643 645 648 651 654 654 655 655 656 663 673 671 657 643 638 637 636 636 631 628 631 635 638 640 641 642 644 645 645 644 644 644 644 645 645 645 645 647 649 651 654 655 656 659 661 664 667 670 673 676 679 682 684 686 688 690 693 696 699 702 704 706 708 710 711
707 709 711 714 711 703 702 699 688 679 669 656 652 652 650 648 651 668 688 681 659 652 654 653 655 657 658 661 663 663 668 671 665 653 645 643 641 640 641 640 638 640 641 640 643 644 645 645 645 644 643 642 643 643 644 644 644 645 646 648 650 651 652 654 657 659 662 665 668 671 674 676 679 681 683 686 688 691 694 696 698 701 703 704 706 708
708 709 710 712 710 706 704 701 690 675 663 657 658 657 653 654 664 684 690 674 659 659 658 656 659 661 661 665 666 665 663 658 654 650 646 644 644 644 644 644 643 644 644 644 646 647 646 645 645 644 643 643 644 644 644 644 644 644 645 647 648 649 651 653 655 658 660 663 665 667 670 673 676 678 680 683 686 688 691 693 695 697 699 701 703 704
706 707 708 708 706 702 700 700 699 684 661 653 658 659 658 667 681 687 679 665 659 660 659 658 661 661 662 665 666 665 662 655 652 652 649 647 649 649 648 647 647 647 647 647 648 648 647 646 646 645 644 643 643 643 643 643 644 644 645 646 647 649 650 652 654 656 658 660 662 665 667 670 673 675 678 681 683 685 688 690 692 694 696 698 700 701
700 703 705 702 700 701 699 701 706 697 670 655 660 663 665 676 685 681 673 666 660 658 660 663 662 662 665 667 666 665 663 659 657 656 653 651 651 651 651 651 651 651 650 648 648 648 647 647 647 646 644 643 642 642 642 643 644 644 645 646 647 648 650 651 653 655 657 659 661 663 665 668 671 673 676 678 680 683 685 687 690 692 693 695 697 698
703 703 700 692 689 697 700 696 695 691 676 666 669 673 674 678 679 675 674 671 664 661 666 668 665 664 666 667 668 667 665 662 660 657 655 654 653 652 652 652 652 652 650 649 649 648 648 648 647 647 646 645 644 643 643 643 644 645 646 647 648 648 649 650 653 655 656 658 660 662 664 667 669 672 674 676 678 681 683 685 688 689 691 693 694 696
707 704 705 699 692 693 694 688 684 684 679 673 673 676 677 677 674 672 674 673 670 668 669 669 668 668 667 668 669 669 666 663 660 657 657 656 653 652 652 651 652 652 650 650 651 650 649 648 648 648 648 648 647 646 645 645 646 646 648 649 650 650 650 652 653 655 656 658 659 661 664 666 668 670 672 675 677 679 681 684 686 687 689 691 692 693
704 704 707 706 700 695 692 687 684 684 682 678 678 679 679 677 674 673 675 676 674 672 669 668 668 667 666 667 669 669 668 665 661 659 657 656 654 652 652 653 653 652 651 651 652 652 650 649 649 650 649 649 649 649 648 648 649 649 651 652 652 652 652 653 654 655 657 658 659 661 663 665 667 669 671 674 675 677 680 681 683 685 687 688 689 691
702 704 706 706 705 705 699 688 682 683 685 685 686 684 681 678 675 674 677 679 677 674 670 668 666 664 664 664 665 668 668 665 663 661 658 657 656 654 653 655 654 653 653 653 654 654 652 651 651 652 651 652 651 651 651 651 651 652 653 653 653 653 654 654 655 656 657 658 659 661 662 664 665 667 670 672 674 675 677 679 680 682 684 685 686 687
703 705 707 706 706 707 701 689 683 685 686 687 688 685 682 681 679 678 680 680 679 676 674 671 668 666 664 664 665 667 667 666 665 664 661 659 658 657 656 656 655 655 655 655 656 655 653 652 653 654 654 655 654 654 654 654 654 654 654 653 653 654 654 654 655 656 657 658 659 661 662 663 665 666 668 670 672 673 674 676 678 680 681 683 684 684
706 709 708 705 703 701 697 691 689 690 688 685 685 684 682 682 683 683 683 682 680 679 678 675 673 669 667 666 667 668 668 667 667 666 663 660 659 658 658 657 656 656 656 657 657 656 655 655 656 656 656 657 657 657 657 656 657 657 656 655 655 654 655 655 656 656 658 659 660 661 662 663 665 667 667 668 671 673 674 676 678 679 680 682 683 684
706 707 704 704 705 701 694 690 691 693 690 684 681 682 683 685 686 686 686 684 683 683 681 679 677 674 669 667 668 668 668 668 668 667 665 662 660 660 658 657 657 657 657 658 659 658 657 657 658 658 659 659 658 658 658 658 658 658 657 657 657 656 656 657 658 659 660 661 662 664 664 665 667 668 668 669 671 674 676 678 679 680 681 683 684 685
702 701 698 699 701 696 689 686 687 691 690 686 683 684 686 687 689 689 688 687 686 684 683 681 680 678 674 669 668 669 669 669 668 667 665 664 663 661 659 658 658 657 658 659 659 659 659 659 659 660 660 660 659 659 659 659 659 659 659 659 659 659 659 659 660 661 662 663 665 666 667 668 669 670 671 671 673 675 677 679 680 681 682 684 685 686